Wind_Speed
37 38 39 39 41 43 43 44 44 43 43 43 43 41 38 39 40 39 38 37 37 35 35 36 36 35 36 36 36 36 35 35 35 35 36 36 36 37 37 37 37 37 36 36
35 35 34 36 38 39 40 41 40 41 42 42 42 41 38 38 40 39 39 38 37 37 37 37 38 38 38 38 39 39 39 39 39 39 39 40 40 40 41 40 39 39 38 38
32 32 32 33 34 35 36 37 37 38 39 40 40 39 37 36 38 38 38 38 38 38 39 40 40 41 41 41 42 43 43 43 43 43 43 43 44 43 42 42 41 41 41 41
32 31 30 31 31 32 32 32 32 33 35 36 38 37 32 34 35 35 36 37 38 39 40 41 42 43 44 45 46 46 47 47 47 48 47 47 46 45 45 44 44 45 44 44
31 30 29 29 29 29 28 27 28 29 31 32 33 35 29 30 31 33 34 36 38 39 41 42 43 45 47 48 49 50 51 52 52 52 51 51 50 49 48 48 48 47 47 46
30 28 28 27 27 26 25 24 24 25 27 28 27 31 28 27 29 32 34 36 38 40 42 45 47 49 50 52 53 54 55 55 56 56 56 55 54 52 51 50 50 49 49 48
29 28 27 25 25 24 23 23 23 23 24 24 24 26 27 27 29 32 34 37 40 43 45 47 49 51 52 54 55 56 57 57 57 58 58 58 56 55 53 52 51 51 50 49
27 27 26 25 24 23 22 22 22 21 21 21 22 24 26 27 29 32 35 38 40 43 46 48 49 51 53 54 56 57 57 58 58 58 58 58 58 56 54 54 53 52 51 50
26 25 24 24 23 22 22 21 20 20 20 21 22 23 25 27 29 32 34 37 40 42 44 46 49 51 53 55 56 57 58 58 58 58 57 57 57 56 54 53 53 53 52 51
26 25 24 23 22 22 21 19 19 19 20 21 21 21 23 26 28 31 33 36 38 41 44 47 50 52 54 56 56 57 57 57 57 57 57 56 55 55 54 52 52 52 51 50
25 24 23 23 22 20 19 19 18 19 19 20 20 19 22 25 27 29 32 35 38 41 44 47 50 52 54 54 55 55 55 55 54 55 55 55 54 53 52 52 51 50 50 49
24 23 22 22 21 20 19 18 18 18 18 19 19 19 22 24 26 29 31 34 37 40 43 46 48 50 51 51 51 51 51 51 51 51 52 53 52 52 51 50 49 49 48 47
23 22 22 21 20 19 17 17 17 18 18 18 18 18 22 23 26 28 30 32 34 37 40 43 44 45 46 46 45 44 44 45 47 47 48 49 49 49 48 46 46 47 45 44
22 21 21 20 18 17 16 17 17 17 17 16 17 17 19 22 24 25 26 29 31 34 37 39 38 38 38 36 34 33 34 36 38 40 41 44 45 45 44 43 42 42 41 40
21 20 20 18 17 16 16 16 16 16 15 15 14 15 16 18 20 21 23 25 28 31 33 33 32 31 29 26 23 23 24 27 30 33 35 38 39 40 39 38 37 37 36 35
20 19 18 17 17 16 16 16 15 14 14 14 13 14 15 16 18 19 20 22 24 27 28 27 25 23 21 17 14 14 16 19 23 26 29 32 34 34 35 34 33 32 31 30
18 18 17 16 16 15 14 14 13 13 13 12 12 12 13 13 15 16 17 19 20 22 24 22 19 16 12 8 4 5 9 14 17 20 23 26 27 28 29 29 27 26 25 26
17 17 17 16 15 14 13 12 12 12 12 11 11 10 11 11 12 13 14 16 17 18 19 18 16 12 8 5 3 6 9 13 16 19 20 22 24 25 25 24 24 23 23 25
16 16 16 15 14 13 12 11 10 10 10 9 9 8 9 9 10 11 12 13 15 15 15 14 12 10 8 7 7 9 11 14 16 19 20 21 22 22 21 20 20 21 22 23
15 15 15 15 14 13 12 11 10 9 9 8 7 7 8 8 9 9 10 11 12 12 12 12 11 10 10 10 10 11 13 14 15 17 17 18 18 18 17 17 19 20 22 24
14 15 15 15 14 13 13 12 10 9 8 7 6 6 7 8 8 8 8 9 10 9 9 10 9 10 11 11 12 13 13 13 13 14 14 15 14 13 13 14 17 20 23 26
14 14 15 15 15 14 13 12 11 9 8 8 7 7 8 8 7 6 7 8 8 8 7 6 7 8 8 8 9 10 10 11 11 11 11 10 11 12 14 16 18 21 24 27
14 14 14 15 15 14 14 13 11 10 9 8 8 8 8 7 6 6 6 6 6 7 6 5 5 6 6 7 6 6 6 6 6 7 7 8 9 11 13 16 18 21 25 28
14 14 14 15 15 15 14 13 12 11 9 8 8 8 7 7 6 6 6 5 5 5 5 4 3 4 4 4 4 3 2 3 2 3 4 6 9 11 14 17 20 23 26 29
15 16 15 15 16 16 14 13 12 11 10 9 8 8 8 8 7 7 7 6 6 6 5 4 3 3 3 3 2 2 1 1 3 4 7 9 11 14 17 20 23 25 29 31
17 16 16 16 17 17 15 15 13 13 12 11 10 10 9 9 8 8 7 7 6 6 5 5 4 4 4 3 3 3 4 5 6 8 11 13 15 18 20 23 25 28 30 32
Wind_Direction
217 220 222 223 225 227 228 230 232 233 233 235 236 237 235 236 238 239 240 241 242 243 243 244 244 245 246 248 250 252 254 255 257 258 261 263 263 263 262 263 264 266 267 269
215 217 219 221 223 227 228 230 232 233 233 235 236 237 237 236 238 240 241 242 243 243 244 246 247 248 249 251 252 254 255 257 258 259 260 261 261 262 263 263 265 266 267 268
213 215 217 219 222 226 228 230 231 234 235 236 237 237 239 239 240 241 243 243 244 245 246 247 249 251 252 254 255 256 257 258 259 260 260 260 262 263 264 264 264 264 264 264
210 212 215 217 220 223 226 228 231 233 235 237 238 238 237 240 241 243 245 246 247 248 249 250 253 254 256 257 258 258 259 259 259 260 260 261 262 263 263 262 261 261 261 262
208 210 212 214 217 220 224 225 227 230 233 237 239 241 232 239 241 244 246 249 251 252 254 256 258 259 260 261 261 261 261 260 260 260 260 260 260 261 261 261 260 260 261 261
206 207 209 210 212 215 216 218 222 226 231 234 236 243 240 240 243 246 249 252 255 257 258 260 261 262 263 263 263 262 261 261 260 260 259 259 259 259 259 259 258 258 258 259
202 204 205 205 207 208 208 211 216 222 227 232 235 243 250 250 251 253 255 257 259 260 262 263 264 265 265 264 263 262 261 260 259 258 257 257 257 257 256 255 256 256 256 257
201 201 201 201 202 201 204 209 216 222 227 233 238 245 254 259 261 262 264 265 266 267 268 268 268 267 267 265 264 262 260 259 258 257 256 255 255 254 254 252 253 253 254 254
198 199 198 199 199 200 203 210 217 227 233 238 244 251 258 265 268 270 271 272 273 274 274 273 272 270 268 267 265 264 262 259 257 256 254 254 253 253 252 250 249 250 251 252
196 196 197 199 200 203 208 214 222 232 241 246 251 260 268 271 275 277 279 279 279 279 279 278 276 274 272 270 268 265 262 259 256 253 251 250 249 249 249 248 247 247 248 249
194 196 198 201 204 208 214 221 231 241 250 258 263 272 274 278 280 282 283 284 285 285 285 285 283 280 277 273 270 266 262 258 254 251 248 246 245 245 245 245 244 244 245 246
195 197 201 205 208 213 221 230 239 249 257 265 273 280 281 283 285 288 289 290 292 293 292 291 289 286 282 278 273 268 262 257 252 248 244 242 241 240 241 241 241 241 242 244
197 201 204 209 214 221 230 237 245 253 262 270 275 279 282 286 290 293 295 296 298 298 298 298 295 292 288 283 276 268 260 254 248 243 239 237 236 236 236 236 237 238 239 242
200 205 210 216 221 228 234 242 250 258 266 270 274 276 281 288 292 295 299 302 303 305 306 306 303 299 294 287 278 267 258 249 243 237 234 232 231 230 230 231 233 235 237 240
205 210 215 220 224 228 237 245 251 259 265 271 274 280 284 289 295 300 305 310 313 315 315 313 311 307 301 292 279 264 251 240 234 229 227 225 223 223 224 226 229 232 235 239
209 214 218 222 225 229 237 243 250 258 267 274 278 283 290 298 305 310 316 321 324 325 325 324 320 316 311 302 282 257 239 227 220 217 215 215 217 217 218 221 225 228 233 240
210 215 220 224 227 230 235 242 250 259 269 278 282 287 293 303 311 317 324 330 333 336 337 337 333 331 331 321 289 227 203 194 193 195 199 203 206 208 211 213 219 225 231 239
215 219 223 226 229 234 238 243 252 262 271 279 284 291 299 307 319 326 332 338 343 343 345 349 351 353 1 21 96 145 162 167 171 177 181 186 192 198 204 209 216 223 232 242
219 222 223 226 230 233 237 244 255 262 269 275 280 293 310 317 324 332 340 347 350 352 357 4 15 29 46 70 98 118 133 146 155 161 168 175 183 189 196 205 216 226 236 246
221 221 222 226 229 231 234 241 251 257 261 265 274 294 316 322 323 331 343 353 357 0 9 22 38 55 70 83 100 112 122 132 143 153 163 173 179 186 198 212 224 237 247 256
221 219 222 223 224 228 231 239 246 252 254 260 275 295 315 323 325 335 346 353 356 1 15 32 48 60 71 84 98 108 117 126 137 149 159 168 179 193 211 226 237 247 256 263
219 219 219 219 221 225 228 235 242 249 254 262 274 290 305 311 311 321 336 346 352 357 9 28 46 59 68 81 99 113 119 129 141 154 167 181 200 217 229 243 255 263 270 274
221 219 218 219 222 225 229 234 241 249 256 262 271 283 297 303 302 309 317 334 347 1 6 20 42 53 61 71 90 111 121 136 154 173 192 211 231 247 255 261 270 276 280 284
223 223 222 222 225 226 229 235 243 250 254 260 268 276 284 288 292 304 313 316 327 342 354 8 28 39 48 59 71 91 112 135 171 218 242 257 265 271 276 281 285 288 291 294
226 228 227 226 228 228 232 238 245 249 252 257 265 271 276 279 280 285 291 298 305 314 324 335 351 4 4 3 11 15 3 324 298 288 287 288 289 291 292 294 296 297 299 301
229 229 229 229 231 233 235 242 246 248 252 257 264 268 271 271 273 273 277 288 294 299 303 308 317 323 327 327 325 322 318 312 305 302 302 302 302 301 301 301 302 303 304 305
Height
5654 5662 5669 5676 5681 5687 5692 5698 5703 5709 5713 5718 5723 5727 5733 5736 5739 5742 5745 5748 5751 5753 5755 5757 5759 5761 5763 5765 5766 5767 5769 5770 5771 5772 5773 5773 5774 5775 5775 5776 5776 5777 5777 5777
5650 5657 5663 5668 5674 5680 5686 5691 5697 5702 5707 5711 5716 5720 5725 5729 5732 5734 5737 5740 5743 5745 5747 5749 5750 5752 5754 5756 5757 5758 5760 5760 5761 5763 5764 5764 5765 5765 5766 5767 5768 5769 5769 5769
5646 5653 5658 5663 5669 5675 5680 5686 5691 5696 5700 5704 5709 5715 5719 5722 5724 5727 5730 5732 5734 5737 5739 5740 5741 5743 5744 5746 5747 5748 5749 5750 5752 5753 5754 5754 5754 5755 5757 5758 5760 5760 5760 5759
5640 5647 5653 5659 5664 5669 5675 5680 5685 5690 5694 5698 5703 5708 5714 5714 5717 5719 5722 5724 5726 5728 5729 5731 5732 5733 5734 5735 5736 5737 5738 5739 5740 5741 5742 5743 5744 5746 5748 5748 5749 5749 5749 5750
5637 5643 5649 5654 5660 5665 5670 5675 5680 5684 5689 5693 5697 5701 5708 5708 5710 5712 5714 5716 5717 5719 5720 5721 5721 5722 5723 5723 5724 5724 5725 5726 5727 5728 5730 5732 5733 5735 5736 5737 5738 5739 5739 5740
5634 5640 5645 5650 5656 5661 5667 5672 5676 5680 5684 5689 5693 5695 5700 5702 5703 5705 5707 5708 5709 5709 5710 5710 5710 5710 5710 5710 5710 5710 5710 5712 5712 5714 5716 5718 5720 5722 5723 5725 5726 5727 5728 5729
5630 5636 5642 5647 5652 5658 5663 5668 5673 5676 5680 5685 5688 5690 5692 5694 5696 5697 5698 5699 5699 5699 5699 5699 5698 5697 5696 5695 5695 5694 5695 5696 5696 5698 5700 5703 5705 5708 5710 5712 5713 5715 5717 5719
5629 5634 5640 5645 5650 5655 5660 5665 5670 5674 5677 5680 5683 5684 5686 5687 5687 5688 5688 5688 5688 5688 5687 5686 5684 5683 5681 5679 5678 5678 5678 5679 5680 5682 5684 5687 5689 5692 5695 5698 5701 5703 5705 5708
5627 5633 5638 5643 5648 5653 5657 5661 5666 5669 5672 5675 5677 5679 5680 5679 5679 5679 5679 5678 5677 5676 5674 5672 5669 5667 5665 5663 5661 5660 5660 5662 5663 5665 5668 5671 5674 5677 5680 5684 5687 5690 5693 5696
5625 5631 5636 5641 5646 5650 5655 5658 5662 5665 5667 5669 5672 5673 5673 5671 5670 5670 5669 5667 5666 5663 5660 5657 5654 5650 5647 5645 5643 5641 5641 5643 5645 5648 5651 5655 5659 5662 5666 5669 5674 5678 5681 5684
5624 5630 5635 5639 5644 5648 5652 5656 5658 5660 5662 5664 5665 5669 5666 5664 5663 5661 5660 5657 5654 5651 5646 5642 5637 5632 5628 5625 5623 5621 5621 5622 5626 5629 5634 5639 5643 5647 5651 5656 5661 5666 5670 5674
5623 5628 5632 5637 5641 5645 5648 5651 5654 5656 5657 5658 5659 5663 5658 5656 5654 5652 5650 5647 5643 5638 5633 5626 5620 5614 5609 5605 5602 5600 5600 5602 5606 5611 5616 5622 5628 5633 5638 5643 5649 5654 5659 5663
5621 5626 5631 5635 5640 5643 5645 5647 5649 5651 5652 5652 5653 5657 5652 5650 5647 5644 5641 5637 5633 5627 5620 5613 5604 5597 5590 5585 5582 5581 5581 5584 5588 5594 5600 5607 5614 5620 5627 5632 5638 5644 5650 5654
5620 5625 5629 5634 5636 5639 5641 5643 5645 5646 5647 5648 5648 5649 5646 5643 5641 5638 5634 5629 5623 5617 5609 5600 5592 5583 5576 5570 5567 5565 5567 5569 5574 5581 5588 5595 5603 5610 5617 5624 5630 5636 5642 5646
5618 5622 5626 5630 5633 5635 5637 5639 5640 5641 5642 5643 5643 5642 5640 5638 5635 5631 5627 5622 5616 5608 5600 5591 5583 5575 5567 5561 5557 5556 5557 5560 5565 5571 5578 5586 5594 5602 5609 5617 5623 5630 5635 5640
5616 5620 5623 5626 5629 5631 5633 5635 5636 5637 5637 5638 5637 5637 5635 5632 5629 5625 5621 5616 5610 5602 5594 5586 5578 5570 5562 5557 5553 5552 5552 5555 5560 5566 5573 5581 5589 5597 5605 5612 5619 5624 5629 5634
5614 5618 5621 5624 5626 5628 5631 5632 5632 5633 5633 5633 5633 5632 5630 5628 5624 5620 5616 5611 5605 5599 5591 5583 5575 5568 5562 5557 5554 5552 5553 5555 5559 5565 5571 5579 5586 5594 5602 5609 5615 5620 5625 5628
5612 5615 5618 5620 5623 5625 5629 5628 5629 5629 5630 5629 5628 5627 5626 5623 5620 5617 5613 5608 5603 5597 5590 5583 5576 5570 5564 5560 5557 5555 5556 5558 5561 5566 5572 5579 5586 5594 5601 5606 5612 5616 5620 5623
5610 5612 5615 5617 5619 5622 5624 5625 5625 5626 5626 5626 5625 5624 5622 5619 5617 5614 5610 5606 5602 5597 5591 5585 5579 5573 5568 5565 5563 5561 5561 5563 5566 5570 5576 5581 5587 5594 5600 5605 5609 5612 5615 5617
5607 5610 5613 5614 5616 5619 5622 5622 5622 5624 5623 5623 5622 5621 5619 5617 5615 5613 5609 5605 5601 5597 5592 5587 5582 5578 5574 5571 5569 5568 5568 5570 5572 5576 5580 5584 5589 5594 5599 5603 5606 5608 5610 5611
5605 5607 5609 5611 5613 5615 5618 5618 5620 5622 5622 5620 5619 5618 5617 5615 5613 5611 5608 5605 5602 5598 5594 5590 5586 5583 5580 5577 5576 5575 5575 5577 5579 5581 5585 5588 5592 5595 5598 5601 5603 5605 5605 5605
5602 5604 5606 5608 5610 5614 5614 5615 5617 5618 5617 5617 5616 5615 5614 5612 5611 5609 5606 5604 5601 5599 5595 5592 5590 5587 5585 5583 5582 5581 5581 5582 5583 5585 5588 5591 5593 5595 5597 5599 5600 5600 5600 5599
5600 5602 5604 5606 5610 5610 5611 5612 5613 5614 5614 5614 5613 5613 5612 5610 5609 5607 5605 5603 5601 5599 5597 5594 5592 5590 5588 5587 5586 5586 5586 5586 5588 5589 5591 5592 5594 5595 5595 5596 5596 5595 5594 5592
5597 5598 5600 5602 5604 5606 5607 5608 5609 5610 5610 5611 5610 5610 5609 5608 5607 5606 5604 5603 5601 5599 5597 5595 5594 5592 5591 5590 5589 5589 5589 5589 5590 5591 5591 5592 5592 5592 5592 5592 5591 5589 5587 5584
5593 5595 5597 5599 5600 5602 5604 5605 5606 5607 5607 5607 5607 5607 5606 5606 5605 5604 5603 5602 5600 5599 5597 5596 5595 5594 5593 5592 5591 5590 5590 5590 5590 5590 5590 5590 5590 5589 5588 5587 5585 5583 5580 5576
5589 5591 5593 5595 5596 5598 5600 5601 5602 5603 5603 5604 5604 5604 5603 5603 5602 5602 5601 5600 5599 5598 5597 5596 5595 5594 5593 5592 5592 5591 5591 5590 5590 5589 5588 5587 5586 5585 5583 5581 5579 5575 5572 5568